Regional Weather Roundup
Issued by NWS Newport/Morehead, NC

Current Version | Previous Version | Graphics & Text | Print | Product List | Glossary Off
Versions: 1 2 3 4 5 6 7 8 9 10 11 12 13 14 15 16 17 18 19 20 21 22 23 24 25 26 27 28 29 30 31 32 33 34 35 36 37 38 39 40 41 42 43 44 45 46 47 48 49 50
000 ASUS42 KMHX 280612 RWRMHX WEATHER ROUNDUP FOR EASTERN NORTH CAROLINA NATIONAL WEATHER SERVICE NEWPORT/MOREHEAD CITY NC 200 AM EDT SAT MAR 28 2015 NOTE: "FAIR" INDICATES FEW OR NO CLOUDS BELOW 12,000 FEET WITH NO SIGNIFICANT WEATHER AND/OR OBSTRUCTIONS TO VISIBILITY NCZ015>017-031-032-045>047-102-103-280700- NORTH COAST CITY SKY/WX TMP DP RH WIND PRES REMARKS EDENTON CLOUDY 40 38 91 NW7 29.79S ELIZABETH CITY CLOUDY 41 38 89 NW10 29.77S KITTY HAWK CLOUDY 39 38 94 N10G17 29.73R FOG MANTEO CLOUDY 40 37 90 N16G24 29.74S $$ NCZ045>047-081-094-103-104-280700- CENTRAL COAST CITY SKY/WX TMP DP RH WIND PRES REMARKS FRISCO CLOUDY 42 38 85 N10G25 29.73F SWANQUARTER N/A 41 N/A N/A N2G8 29.74S $$ NCZ095-097-098-100-101-280700- SOUTHERN COAST CITY SKY/WX TMP DP RH WIND PRES REMARKS BEAUFORT CLOUDY 43 40 89 N12 29.79R CEDAR ISLAND N/A 45 N/A N/A N14G24 29.79S JACKSONVILLE CLOUDY 43 38 82 NW10 29.80F PINEY ISLAND CLOUDY N/A N/A N/A N15 29.78R WILMINGTON CLEAR 43 39 86 NW7 29.83R $$ NCZ011>013-027>030-043-044-078>080-089-090>093-098-280700- COASTAL PLAIN CITY SKY/WX TMP DP RH WIND PRES REMARKS AHOSKIE PTCLDY 37 36 96 CALM 29.83R FOG CLINTON CLOUDY 42 40 93 NW3 29.86R ELIZABETHTOWN CLOUDY 43 42 95 NW3 29.86R GOLDSBORO MOCLDY 40 40 99 W6 29.82R GREENVILLE CLEAR 37 37 100 N3 29.85S HAVELOCK CLOUDY 44 40 85 N10 29.80R KENANSVILLE CLOUDY 41 39 93 NW6 29.85R KINSTON CLEAR 39 37 93 NW5 29.83S NEW BERN CLOUDY 43 39 86 NW8 29.81R RICHLANDS PTCLDY 39 34 81 CALM 29.83S ROCKY MOUNT CLOUDY 39 37 92 NW3 29.83S WASHINGTON MOCLDY 40 38 93 NW3 29.80F WHITEVILLE CLOUDY 44 40 88 CALM 29.85S $$ AMZ130-135-150-152-154-156-158-170-250-252-270-ANZ085-086-088-633-658-670-280700- MARINE OBSERVATIONS STATION/POSITION TIME TEMP WIND PRES WAVE SWELL AIR SEA DIR/SP/G HT/PER HT/PER (UTC) (F) (DEG/KT/KT) (MB) (FT/S) (FT/S) CHESAPEAKE LIGHT 0500 40 10/ 15/ 16 1008.4 64 E VA BEACH 0550 44 57 360/ 27/ 33 1004.5 10/ 7 DUCK 0500 38 41 10/ 19/ 22 1006.1 2 E DUCK 0511 41 N/A 6/ 7 2/12 10 NE DUCK NOT AVBL OREGON INLET 0500 39 45 350/ 17/ 22 1006.8 HATTERAS CG 0500 44 55 360/ 25/ 29 1007.1 CAPE LOOKOUT 0600 45 350/ 10/ 14 1008.2 BEAUFORT LAB 0500 45 57 10/ 11/ 16 1006.8 27 SE WRIGHTSVLE 0500 46 64 10/ 16/ 19 1009.3 5 SE WRIGHTSVLE 0500 46 56 330/ 14/ 16 1008.6 225 S CAPE HAT 0550 67 69 250/ 17/ 21 1005.3 11/ 8 8/ 8 41 SE CHARLESTON 0550 54 69 320/ 16/ 19 1010.7 5/ 6 2/ 9 $$

USA.gov is the U.S. government's official web portal to all federal, state and local government web resources and services.